Location: Rowland
(34.5359°N, 79.2929°W)
Time: 14:39:20
(UTC+00:00)

Transit 4A - Pass Details

Date: 09 October 2022
Orbit: 871 x 972 km, 66.8° (Epoch: 29 November)

Event Time Altitude Azimuth Distance (km) Brightness Sun altitude
Rises 09:53:13 0° 346° (NNW) 3,480 10.8 -18.2°
Reaches altitude 10° 09:56:15 10° 0° (N) 2,530 10.2 -17.6°
Maximum altitude 10:00:49 23° 52° (NE) 1,762 10.0 -16.7°
Drops below altitude 10° 10:05:21 10° 104° (ESE) 2,516 11.4 -15.8°
Sets 10:08:21 0° 119° (ESE) 3,456 11.9 -15.1°
